Voltar ao catálogo

METEOR 2-13 DEB

AtivoPO
NORAD 43151·DEBRIS·🇷🇺 Russia

Lançado Dec 26, 1985 de Plesetsk Cosmodrome

Loading…

Próximas Passagens (próximas 24 horas)

TLE

EnvelhecendoSource: Space-Track

Época: Sep 9, 2026, 12:40 UTC

1 43151U 85119C   26252.52783260  .00000424  00000-0  30200-3 0  9996
2 43151  82.5385 172.6587 0024620 158.9038 201.3150 13.95215060459700

Acompanhe METEOR 2-13 DEB em tempo real com AllMySat

Download on the App Store